Iridium 51

operational
NORAD ID: 25262 Int'l Des: 1998-018 Owner: IRID Country: US Constellation: iridium
LEOCIRCULARPOLAR

About Iridium 51

Description loading...

Live Position

Loading 3D Globe...

Upcoming Passes

Altitude History

Altitude vs Time

uPlot chart will show altitude changes over time

Two-Line Element Set

1 25262U 98018A 25298.18179786 .00076931 00000-0 11249-2 0 9991
2 25262 86.3799 350.9706 0067902 107.1889 253.6821 15.52626188467096
Epoch: Oct 25, 2025 • Age: 17 hours

Current Status

Altitude 406.6 km
Velocity 7.67 km/s
Sub-Earth Point 20.13°N, 4.55°W
Launch Date Mar 25, 1998
Age 27.5 years
Type communications

Technical Details

Classification Payload
Mass 667.00 kg
Dry Mass 556.00 kg
Total Mass 667.00 kg
Length 3.50 m
Diameter 1.00 m
Span 5.00 m
Shape Box + 2 Pan
Manufacturer MOTO
Bus Type LM700
Phase Status In Orbit
Owner/State IRID/US

Large Constellations

Loading constellations...